EW6987 Weather Reports


Display with metric or nautical units.
time (UTC)temp
F
wind
direction
speed
MPH
gust
MPH
rain 1hr
in
rain 24hr
in
rain mn
in
humidity
%
barometer
mb
20260510201541 59 282 0.0 3.0 0.00 0.05 0.00 35 1023.9
20260510200039 59 337 1.0 4.0 0.00 0.05 0.00 37 1024.0
20260510194542 59 342 1.0 4.0 0.00 0.05 0.00 37 1024.1
20260510193037 59 24 2.0 5.0 0.00 0.05 0.00 42 1024.2
20260510191537 59 333 1.0 4.0 0.00 0.05 0.00 39 1024.2
20260510190036 59 1 2.0 4.0 0.00 0.05 0.00 40 1024.1
20260510184536 59 1 1.0 5.0 0.00 0.05 0.00 43 1024.1
20260510183034 59 300 1.0 3.0 0.00 0.05 0.00 41 1024.2
20260510181534 58 307 1.0 4.0 0.00 0.05 0.00 43 1024.0
20260510180033 58 303 0.0 4.0 0.00 0.05 0.00 41 1023.9
20260510174633 57 295 1.0 3.0 0.00 0.05 0.00 48 1024.0
20260510173035 56 235 1.0 4.0 0.00 0.05 0.00 46 1023.9
20260510171529 56 224 1.0 4.0 0.00 0.05 0.00 47 1024.1
20260510170030 56 314 0.0 5.0 0.00 0.05 0.00 49 1024.1
20260510164527 57 257 0.0 3.0 0.00 0.05 0.00 50 1024.1
20260510163027 56 249 0.0 3.0 0.00 0.05 0.00 50 1024.0
20260510161525 56 315 1.0 4.0 0.00 0.05 0.00 56 1023.8
20260510160026 56 263 1.0 4.0 0.00 0.05 0.00 57 1023.6
20260510154520 55 342 1.0 4.0 0.00 0.05 0.00 58 1023.4
20260510153022 55 311 2.0 6.0 0.00 0.05 0.00 58 1023.4
20260510151518 55 13 2.0 6.0 0.00 0.05 0.00 59 1023.3
20260510150020 55 310 2.0 6.0 0.00 0.05 0.00 59 1023.0
20260510144520 54 18 2.0 5.0 0.00 0.05 0.00 58 1022.8
20260510143018 55 278 2.0 6.0 0.00 0.05 0.00 59 1022.8
20260510141522 54 335 1.0 6.0 0.00 0.05 0.00 61 1022.8
20260510140010 53 18 2.0 6.0 0.00 0.05 0.00 62 1022.7
20260510134509 53 268 2.0 6.0 0.00 0.05 0.00 62 1022.7
20260510133007 52 19 2.0 7.0 0.00 0.05 0.00 62 1022.5
20260510131506 52 335 3.0 8.0 0.00 0.05 0.00 63 1022.3
20260510130003 53 324 1.0 7.0 0.00 0.05 0.00 61 1021.9
20260510124501 52 290 2.0 6.0 0.00 0.05 0.00 60 1021.8
20260510123115 51 305 2.0 10.0 0.00 0.05 0.00 61 1021.7
20260510121557 51 4 4.0 8.0 0.00 0.05 0.00 58 1021.4
20260510120055 51 4 3.0 11.0 0.00 0.05 0.00 60 1021.2
20260510114551 50 324 3.0 12.0 0.00 0.05 0.00 61 1020.9
20260510113045 50 340 4.0 9.0 0.00 0.05 0.00 65 1020.7
20260510111634 50 17 2.0 9.0 0.00 0.05 0.00 68 1020.4
20260510110052 50 17 3.0 10.0 0.00 0.05 0.00 70 1020.0
20260510104636 50 4 3.0 9.0 0.00 0.05 0.00 70 1020.0
20260510103057 50 3 3.0 11.0 0.00 0.05 0.00 69 1019.4
20260510101503 50 11 4.0 9.0 0.00 0.05 0.00 74 1019.0
20260510100052 50 358 3.0 8.0 0.00 0.05 0.00 80 1018.9
20260510094523 51 36 2.0 8.0 0.00 0.05 0.00 79 1018.5
20260510093051 51 256 2.0 5.0 0.00 0.05 0.00 77 1018.3
20260510091512 51 271 1.0 5.0 0.00 0.05 0.00 74 1018.2
20260510090052 51 250 0.0 5.0 0.00 0.05 0.00 74 1017.7
20260510084503 50 33 0.0 1.0 0.00 0.05 0.00 79 1017.5
20260510083051 50 288 0.0 0.0 0.00 0.05 0.00 81 1017.3
20260510081503 51 290 0.0 1.0 0.00 0.05 0.00 78 1017.3
20260510080048 51 257 0.0 1.0 0.00 0.05 0.00 77 1016.9
20260510074633 52 309 0.0 2.0 0.00 0.05 0.00 77 1016.7
20260510073119 52 310 0.0 2.0 0.00 0.05 0.00 77 1016.5
20260510071533 52 330 0.0 4.0 0.00 0.05 0.00 76 1016.3
20260510070119 52 257 1.0 3.0 0.00 0.05 0.00 75 1016.0
20260510064528 53 295 0.0 5.0 0.00 0.05 0.00 75 1015.9
20260510063115 53 91 1.0 4.0 0.00 0.05 0.00 75 1015.8
20260510061532 54 357 3.0 7.0 0.00 0.05 0.00 74 1015.5
20260510060122 54 5 3.0 6.0 0.00 0.05 0.00 74 1015.4
20260510054556 55 6 3.0 8.0 0.00 0.05 0.00 76 1015.0
20260510053126 55 328 3.0 10.0 0.00 0.05 0.00 73 1014.9
20260510051545 56 10 3.0 12.0 0.00 0.05 0.00 72 1014.6
20260510050001 57 343 4.0 12.0 0.00 0.05 0.00 72 1014.2
20260510044548 59 293 7.0 17.0 0.00 0.05 0.00 71 1013.8
20260510043006 60 266 3.0 14.0 0.00 0.05 0.00 74 1013.2
20260510041629 60 264 3.0 12.0 0.00 0.05 0.00 78 1012.9
20260510040004 60 255 3.0 9.0 0.00 0.05 0.00 80 1012.6
20260510034616 60 220 1.0 7.0 0.00 0.05 0.05 80 1012.1
20260510033027 59 243 0.0 4.0 0.00 0.05 0.05 79 1011.8
20260510031612 60 219 1.0 7.0 0.00 0.05 0.05 77 1011.4
20260510030019 60 181 2.0 6.0 0.00 0.05 0.05 78 1011.3
20260510024613 60 202 3.0 7.0 0.00 0.05 0.05 76 1011.2
20260510023018 61 187 3.0 8.0 0.00 0.05 0.05 77 1011.1
20260510021604 61 190 4.0 9.0 0.00 0.05 0.05 77 1010.9
20260510020017 61 270 3.0 9.0 0.00 0.05 0.05 78 1011.0
20260510014616 60 202 5.0 15.0 0.00 0.05 0.05 79 1010.9
20260510013018 60 194 1.0 5.0 0.00 0.05 0.05 80 1010.7
20260510011611 60 198 0.0 4.0 0.00 0.05 0.05 80 1010.4
20260510010029 61 183 0.0 7.0 0.00 0.05 0.05 77 1010.3
20260510004619 61 171 3.0 6.0 0.00 0.05 0.05 76 1010.2
20260510003031 62 179 3.0 10.0 0.00 0.05 0.05 74 1010.2
20260510001620 63 196 3.0 7.0 0.00 0.05 0.05 71 1010.3
20260510000058 64 231 5.0 10.0 0.00 0.05 0.05 68 1010.2
20260509234518 64 213 3.0 10.0 0.00 0.05 0.05 70 1010.3
20260509233058 64 257 4.0 13.0 0.00 0.05 0.05 70 1010.2
20260509231508 64 206 3.0 14.0 0.00 0.05 0.05 71 1010.1
20260509230057 64 233 5.0 12.0 0.01 0.05 0.05 71 1010.0
20260509224516 63 206 4.0 9.0 0.01 0.07 0.05 77 1010.1
20260509223104 61 185 4.0 12.0 0.05 0.07 0.05 82 1010.1
20260509221516 59 205 3.0 14.0 0.05 0.07 0.05 93 1009.9
20260509220110 58 209 4.0 11.0 0.04 0.06 0.04 93 1010.0
20260509214514 63 254 8.0 21.0 0.04 0.07 0.04 74 1010.0
20260509213100 70 215 5.0 23.0 0.00 0.03 0.00 52 1008.0
20260509211518 70 185 6.0 19.0 0.00 0.03 0.00 54 1007.7
20260509210109 71 237 8.0 27.0 0.00 0.03 0.00 54 1007.5
20260509204516 71 188 7.0 18.0 0.00 0.03 0.00 54 1007.5
20260509203108 72 208 7.0 21.0 0.00 0.03 0.00 56 1007.8